owner,sensor,date,latitude,longitude,vertical_datum,mass_concentration_of_oxygen_in_sea_water,qcFlag 
DISL,ioos:station:DISL:BSCA:1,2012-11-01T00:00:00Z,30.3288,-87.8293,1.903,8.4,1111122 
DISL,ioos:station:DISL:BSCA:1,2012-11-01T00:30:00Z,30.3288,-87.8293,1.933,8.59,1111122 
DISL,ioos:station:DISL:BSCA:1,2012-11-01T01:00:00Z,30.3288,-87.8293,1.953,9.02,1111122 
DISL,ioos:station:DISL:BSCA:1,2012-11-01T01:30:00Z,30.3288,-87.8293,1.98,8.85,1111122 
DISL,ioos:station:DISL:BSCA:1,2012-11-01T02:00:00Z,30.3288,-87.8293,2.011,8.87,1111122 
DISL,ioos:station:DISL:BSCA:1,2012-11-01T02:30:00Z,30.3288,-87.8293,2.039,8.84,1111122 
DISL,ioos:station:DISL:BSCA:1,2012-11-01T03:00:00Z,30.3288,-87.8293,2.05,8.69,1111122 
DISL,ioos:station:DISL:BSCA:1,2012-11-01T03:30:00Z,30.3288,-87.8293,2.078,9.44,1111122 
DISL,ioos:station:DISL:BSCA:1,2012-11-01T04:00:00Z,30.3288,-87.8293,2.085,9.05,1111122 
DISL,ioos:station:DISL:BSCA:1,2012-11-01T04:30:00Z,30.3288,-87.8293,2.087,9.44,1111122 
DISL,ioos:station:DISL:BSCA:1,2012-11-01T05:00:00Z,30.3288,-87.8293,2.102,9.54,1111122 
DISL,ioos:station:DISL:BSCA:1,2012-11-01T05:30:00Z,30.3288,-87.8293,2.104,9.11,1111122 
DISL,ioos:station:DISL:BSCA:1,2012-11-01T06:00:00Z,30.3288,-87.8293,2.105,9.1,1111122 
DISL,ioos:station:DISL:BSCA:1,2012-11-01T06:30:00Z,30.3288,-87.8293,2.089,9.05,1111122 
DISL,ioos:station:DISL:BSCA:1,2012-11-01T07:00:00Z,30.3288,-87.8293,2.054,9.0,1111122 
DISL,ioos:station:DISL:BSCA:1,2012-11-01T07:30:00Z,30.3288,-87.8293,2.025,8.72,1111122 
DISL,ioos:station:DISL:BSCA:1,2012-11-01T08:00:00Z,30.3288,-87.8293,1.987,9.19,1111122 
DISL,ioos:station:DISL:BSCA:1,2012-11-01T08:30:00Z,30.3288,-87.8293,1.961,9.23,1111122 
DISL,ioos:station:DISL:BSCA:1,2012-11-01T09:00:00Z,30.3288,-87.8293,1.93,9.33,1111122 
DISL,ioos:station:DISL:BSCA:1,2012-11-01T09:30:00Z,30.3288,-87.8293,1.901,9.3,1111122 
DISL,ioos:station:DISL:BSCA:1,2012-11-01T10:00:00Z,30.3288,-87.8293,1.851,9.31,1111122 
DISL,ioos:station:DISL:BSCA:1,2012-11-01T10:30:00Z,30.3288,-87.8293,1.825,9.4,1111122 
DISL,ioos:station:DISL:BSCA:1,2012-11-01T11:00:00Z,30.3288,-87.8293,1.783,9.23,1111122 
DISL,ioos:station:DISL:BSCA:1,2012-11-01T11:30:00Z,30.3288,-87.8293,1.755,9.36,1111122 
DISL,ioos:station:DISL:BSCA:1,2012-11-01T12:00:00Z,30.3288,-87.8293,1.719,9.22,1111122 
DISL,ioos:station:DISL:BSCA:1,2012-11-01T12:30:00Z,30.3288,-87.8293,1.682,9.15,1111122 
DISL,ioos:station:DISL:BSCA:1,2012-11-01T13:00:00Z,30.3288,-87.8293,1.652,9.15,1111122 
DISL,ioos:station:DISL:BSCA:1,2012-11-01T13:30:00Z,30.3288,-87.8293,1.614,8.79,1111122 
DISL,ioos:station:DISL:BSCA:1,2012-11-01T14:00:00Z,30.3288,-87.8293,1.587,8.96,1111122 
DISL,ioos:station:DISL:BSCA:1,2012-11-01T14:30:00Z,30.3288,-87.8293,1.561,8.6,1111122 
DISL,ioos:station:DISL:BSCA:1,2012-11-01T15:00:00Z,30.3288,-87.8293,1.552,8.6,1111122 
DISL,ioos:station:DISL:BSCA:1,2012-11-01T15:30:00Z,30.3288,-87.8293,1.55,8.58,1111122 
DISL,ioos:station:DISL:BSCA:1,2012-11-01T16:00:00Z,30.3288,-87.8293,1.554,8.34,1111122 
DISL,ioos:station:DISL:BSCA:1,2012-11-01T16:30:00Z,30.3288,-87.8293,1.561,8.27,1111122 
DISL,ioos:station:DISL:BSCA:1,2012-11-01T17:00:00Z,30.3288,-87.8293,1.576,7.88,1111122 
DISL,ioos:station:DISL:BSCA:1,2012-11-01T17:30:00Z,30.3288,-87.8293,1.593,7.68,1111122 
DISL,ioos:station:DISL:BSCA:1,2012-11-01T18:00:00Z,30.3288,-87.8293,1.626,8.01,1111122 
DISL,ioos:station:DISL:BSCA:1,2012-11-01T18:30:00Z,30.3288,-87.8293,1.655,8.1,1111122 
DISL,ioos:station:DISL:BSCA:1,2012-11-01T19:00:00Z,30.3288,-87.8293,1.689,7.73,1111122 
DISL,ioos:station:DISL:BSCA:1,2012-11-01T19:30:00Z,30.3288,-87.8293,1.716,8.26,1111122 
DISL,ioos:station:DISL:BSCA:1,2012-11-01T20:00:00Z,30.3288,-87.8293,1.742,8.43,1111122 
DISL,ioos:station:DISL:BSCA:1,2012-11-01T20:30:00Z,30.3288,-87.8293,1.762,8.87,1111122 
DISL,ioos:station:DISL:BSCA:1,2012-11-01T21:00:00Z,30.3288,-87.8293,1.786,9.3,1111122 
DISL,ioos:station:DISL:BSCA:1,2012-11-01T21:30:00Z,30.3288,-87.8293,1.808,9.48,1111122 
DISL,ioos:station:DISL:BSCA:1,2012-11-01T22:00:00Z,30.3288,-87.8293,1.838,9.27,1111122 
DISL,ioos:station:DISL:BSCA:1,2012-11-01T22:30:00Z,30.3288,-87.8293,1.873,9.89,1111122 
DISL,ioos:station:DISL:BSCA:1,2012-11-01T23:00:00Z,30.3288,-87.8293,1.914,9.91,1111122 
DISL,ioos:station:DISL:BSCA:1,2012-11-01T23:30:00Z,30.3288,-87.8293,1.946,10.05,1111122 
DISL,ioos:station:DISL:BSCA:1,2012-11-02T00:00:00Z,30.3288,-87.8293,1.972,9.83,1111122 
DISL,ioos:station:DISL:BSCA:1,2012-11-02T00:30:00Z,30.3288,-87.8293,2.0,9.0,1111122 
DISL,ioos:station:DISL:BSCA:1,2012-11-02T01:00:00Z,30.3288,-87.8293,2.024,9.3,1111122 
DISL,ioos:station:DISL:BSCA:1,2012-11-02T01:30:00Z,30.3288,-87.8293,2.056,9.96,1111122 
DISL,ioos:station:DISL:BSCA:1,2012-11-02T02:00:00Z,30.3288,-87.8293,2.088,9.71,1111122 
DISL,ioos:station:DISL:BSCA:1,2012-11-02T02:30:00Z,30.3288,-87.8293,2.109,9.72,1111122 
DISL,ioos:station:DISL:BSCA:1,2012-11-02T03:00:00Z,30.3288,-87.8293,2.131,9.69,1111122 
DISL,ioos:station:DISL:BSCA:1,2012-11-02T03:30:00Z,30.3288,-87.8293,2.164,9.87,1111122 
DISL,ioos:station:DISL:BSCA:1,2012-11-02T04:00:00Z,30.3288,-87.8293,2.165,9.91,1111122 
DISL,ioos:station:DISL:BSCA:1,2012-11-02T04:30:00Z,30.3288,-87.8293,2.174,9.65,1111122 
DISL,ioos:station:DISL:BSCA:1,2012-11-02T05:00:00Z,30.3288,-87.8293,2.181,9.37,1111122 
DISL,ioos:station:DISL:BSCA:1,2012-11-02T05:30:00Z,30.3288,-87.8293,2.177,8.99,1111122 
DISL,ioos:station:DISL:BSCA:1,2012-11-02T06:00:00Z,30.3288,-87.8293,2.181,8.76,1111122 
DISL,ioos:station:DISL:BSCA:1,2012-11-02T06:30:00Z,30.3288,-87.8293,2.156,8.27,1111122 
DISL,ioos:station:DISL:BSCA:1,2012-11-02T07:00:00Z,30.3288,-87.8293,2.14,8.92,1111122 
DISL,ioos:station:DISL:BSCA:1,2012-11-02T07:30:00Z,30.3288,-87.8293,2.119,6.6,1111122 
DISL,ioos:station:DISL:BSCA:1,2012-11-02T08:00:00Z,30.3288,-87.8293,2.094,7.39,1111122 
DISL,ioos:station:DISL:BSCA:1,2012-11-02T08:30:00Z,30.3288,-87.8293,2.059,7.77,1111122 
DISL,ioos:station:DISL:BSCA:1,2012-11-02T09:00:00Z,30.3288,-87.8293,2.028,7.72,1111122 
DISL,ioos:station:DISL:BSCA:1,2012-11-02T09:30:00Z,30.3288,-87.8293,1.992,7.64,1111122 
DISL,ioos:station:DISL:BSCA:1,2012-11-02T10:00:00Z,30.3288,-87.8293,1.96,7.7,1111122 
DISL,ioos:station:DISL:BSCA:1,2012-11-02T10:30:00Z,30.3288,-87.8293,1.926,7.82,1111122 
DISL,ioos:station:DISL:BSCA:1,2012-11-02T11:00:00Z,30.3288,-87.8293,1.891,8.04,1111122 
DISL,ioos:station:DISL:BSCA:1,2012-11-02T11:30:00Z,30.3288,-87.8293,1.86,7.88,1111122 
DISL,ioos:station:DISL:BSCA:1,2012-11-02T12:00:00Z,30.3288,-87.8293,1.829,7.95,1111122 
DISL,ioos:station:DISL:BSCA:1,2012-11-02T12:30:00Z,30.3288,-87.8293,1.804,7.5,1111122 
DISL,ioos:station:DISL:BSCA:1,2012-11-02T13:00:00Z,30.3288,-87.8293,1.777,8.78,1111122 
DISL,ioos:station:DISL:BSCA:1,2012-11-02T13:30:00Z,30.3288,-87.8293,1.755,8.49,1111122 
DISL,ioos:station:DISL:BSCA:1,2012-11-02T14:00:00Z,30.3288,-87.8293,1.73,8.18,1111122 
DISL,ioos:station:DISL:BSCA:1,2012-11-02T14:30:00Z,30.3288,-87.8293,1.71,8.36,1111122 
DISL,ioos:station:DISL:BSCA:1,2012-11-02T15:00:00Z,30.3288,-87.8293,1.695,8.77,1111122 
DISL,ioos:station:DISL:BSCA:1,2012-11-02T15:30:00Z,30.3288,-87.8293,1.682,8.61,1111122 
DISL,ioos:station:DISL:BSCA:1,2012-11-02T16:00:00Z,30.3288,-87.8293,1.679,9.17,1111122 
DISL,ioos:station:DISL:BSCA:1,2012-11-02T16:30:00Z,30.3288,-87.8293,1.676,9.21,1111122 
DISL,ioos:station:DISL:BSCA:1,2012-11-02T17:00:00Z,30.3288,-87.8293,1.684,9.17,1111122 
DISL,ioos:station:DISL:BSCA:1,2012-11-02T17:30:00Z,30.3288,-87.8293,1.697,9.5,1111122 
DISL,ioos:station:DISL:BSCA:1,2012-11-02T18:00:00Z,30.3288,-87.8293,1.733,9.28,1111122 
DISL,ioos:station:DISL:BSCA:1,2012-11-02T18:30:00Z,30.3288,-87.8293,1.76,8.8,1111122 
DISL,ioos:station:DISL:BSCA:1,2012-11-02T19:00:00Z,30.3288,-87.8293,1.806,8.89,1111122 
DISL,ioos:station:DISL:BSCA:1,2012-11-02T19:30:00Z,30.3288,-87.8293,1.777,9.13,1111122 
DISL,ioos:station:DISL:BSCA:1,2012-11-02T20:00:00Z,30.3288,-87.8293,1.791,9.36,1111122 
DISL,ioos:station:DISL:BSCA:1,2012-11-02T20:30:00Z,30.3288,-87.8293,1.798,9.69,1111122 
DISL,ioos:station:DISL:BSCA:1,2012-11-02T21:00:00Z,30.3288,-87.8293,1.821,9.84,1111122 
DISL,ioos:station:DISL:BSCA:1,2012-11-02T21:30:00Z,30.3288,-87.8293,1.839,10.22,1111122 
DISL,ioos:station:DISL:BSCA:1,2012-11-02T22:00:00Z,30.3288,-87.8293,1.883,9.84,1111122 
DISL,ioos:station:DISL:BSCA:1,2012-11-02T22:30:00Z,30.3288,-87.8293,1.931,9.56,1111122 
DISL,ioos:station:DISL:BSCA:1,2012-11-02T23:00:00Z,30.3288,-87.8293,1.95,9.54,1111122 
DISL,ioos:station:DISL:BSCA:1,2012-11-02T23:30:00Z,30.3288,-87.8293,1.976,9.4,1111122 
DISL,ioos:station:DISL:BSCA:1,2012-11-03T00:00:00Z,30.3288,-87.8293,1.99,9.12,1111122 
DISL,ioos:station:DISL:BSCA:1,2012-11-03T00:30:00Z,30.3288,-87.8293,2.015,9.33,1111122 
DISL,ioos:station:DISL:BSCA:1,2012-11-03T01:00:00Z,30.3288,-87.8293,2.046,9.42,1111122 
DISL,ioos:station:DISL:BSCA:1,2012-11-03T01:30:00Z,30.3288,-87.8293,2.069,9.07,1111122 
DISL,ioos:station:DISL:BSCA:1,2012-11-03T02:00:00Z,30.3288,-87.8293,2.092,8.85,1111122 
DISL,ioos:station:DISL:BSCA:1,2012-11-03T02:30:00Z,30.3288,-87.8293,2.119,8.9,1111122 
DISL,ioos:station:DISL:BSCA:1,2012-11-03T03:00:00Z,30.3288,-87.8293,2.137,8.83,1111122 
DISL,ioos:station:DISL:BSCA:1,2012-11-03T03:30:00Z,30.3288,-87.8293,2.163,7.33,1111122 
DISL,ioos:station:DISL:BSCA:1,2012-11-03T04:00:00Z,30.3288,-87.8293,2.178,6.95,1111122 
DISL,ioos:station:DISL:BSCA:1,2012-11-03T04:30:00Z,30.3288,-87.8293,2.196,8.17,1111122 
DISL,ioos:station:DISL:BSCA:1,2012-11-03T05:00:00Z,30.3288,-87.8293,2.199,9.09,1111122 
DISL,ioos:station:DISL:BSCA:1,2012-11-03T05:30:00Z,30.3288,-87.8293,2.197,9.08,1111122 
DISL,ioos:station:DISL:BSCA:1,2012-11-03T06:00:00Z,30.3288,-87.8293,2.185,9.0,1111122 
DISL,ioos:station:DISL:BSCA:1,2012-11-03T06:30:00Z,30.3288,-87.8293,2.179,8.86,1111122 
DISL,ioos:station:DISL:BSCA:1,2012-11-03T07:00:00Z,30.3288,-87.8293,2.169,8.81,1111122 
DISL,ioos:station:DISL:BSCA:1,2012-11-03T07:30:00Z,30.3288,-87.8293,2.153,9.07,1111122 
DISL,ioos:station:DISL:BSCA:1,2012-11-03T08:00:00Z,30.3288,-87.8293,2.132,8.95,1111122 
DISL,ioos:station:DISL:BSCA:1,2012-11-03T08:30:00Z,30.3288,-87.8293,2.099,9.24,1111122 
DISL,ioos:station:DISL:BSCA:1,2012-11-03T09:00:00Z,30.3288,-87.8293,2.066,9.12,1111122 
DISL,ioos:station:DISL:BSCA:1,2012-11-03T09:30:00Z,30.3288,-87.8293,2.036,9.02,1111122 
DISL,ioos:station:DISL:BSCA:1,2012-11-03T10:00:00Z,30.3288,-87.8293,1.995,8.97,1111122 
DISL,ioos:station:DISL:BSCA:1,2012-11-03T10:30:00Z,30.3288,-87.8293,1.967,8.8,1111122 
DISL,ioos:station:DISL:BSCA:1,2012-11-03T11:00:00Z,30.3288,-87.8293,1.929,8.25,1111122 
DISL,ioos:station:DISL:BSCA:1,2012-11-03T11:30:00Z,30.3288,-87.8293,1.897,7.88,1111122 
DISL,ioos:station:DISL:BSCA:1,2012-11-03T12:00:00Z,30.3288,-87.8293,1.872,8.12,1111122 
DISL,ioos:station:DISL:BSCA:1,2012-11-03T12:30:00Z,30.3288,-87.8293,1.841,8.18,1111122 
DISL,ioos:station:DISL:BSCA:1,2012-11-03T13:00:00Z,30.3288,-87.8293,1.815,8.63,1111122 
DISL,ioos:station:DISL:BSCA:1,2012-11-03T13:30:00Z,30.3288,-87.8293,1.787,8.46,1111122 
DISL,ioos:station:DISL:BSCA:1,2012-11-03T14:00:00Z,30.3288,-87.8293,1.761,7.06,1111122 
DISL,ioos:station:DISL:BSCA:1,2012-11-03T14:30:00Z,30.3288,-87.8293,1.736,7.54,1111122 
DISL,ioos:station:DISL:BSCA:1,2012-11-03T15:00:00Z,30.3288,-87.8293,1.719,8.03,1111122 
DISL,ioos:station:DISL:BSCA:1,2012-11-03T15:30:00Z,30.3288,-87.8293,1.702,8.61,1111122 
DISL,ioos:station:DISL:BSCA:1,2012-11-03T16:00:00Z,30.3288,-87.8293,1.688,8.6,1111122 
DISL,ioos:station:DISL:BSCA:1,2012-11-03T16:30:00Z,30.3288,-87.8293,1.676,9.04,1111122 
DISL,ioos:station:DISL:BSCA:1,2012-11-03T17:00:00Z,30.3288,-87.8293,1.67,9.06,1111122 
DISL,ioos:station:DISL:BSCA:1,2012-11-03T17:30:00Z,30.3288,-87.8293,1.67,9.33,1111122 
DISL,ioos:station:DISL:BSCA:1,2012-11-03T18:00:00Z,30.3288,-87.8293,1.673,9.33,1111122 
DISL,ioos:station:DISL:BSCA:1,2012-11-03T18:30:00Z,30.3288,-87.8293,1.688,9.49,1111122 
DISL,ioos:station:DISL:BSCA:1,2012-11-03T19:00:00Z,30.3288,-87.8293,1.707,9.72,1111122 
DISL,ioos:station:DISL:BSCA:1,2012-11-03T19:30:00Z,30.3288,-87.8293,1.727,9.72,1111122 
DISL,ioos:station:DISL:BSCA:1,2012-11-03T20:00:00Z,30.3288,-87.8293,1.754,9.63,1111122 
DISL,ioos:station:DISL:BSCA:1,2012-11-03T20:30:00Z,30.3288,-87.8293,1.784,9.41,1111122 
DISL,ioos:station:DISL:BSCA:1,2012-11-03T21:00:00Z,30.3288,-87.8293,1.805,8.7,1111122 
DISL,ioos:station:DISL:BSCA:1,2012-11-03T21:30:00Z,30.3288,-87.8293,1.829,8.45,1111122 
DISL,ioos:station:DISL:BSCA:1,2012-11-03T22:00:00Z,30.3288,-87.8293,1.853,8.61,1111122 
DISL,ioos:station:DISL:BSCA:1,2012-11-03T22:30:00Z,30.3288,-87.8293,1.878,8.75,1111122 
DISL,ioos:station:DISL:BSCA:1,2012-11-03T23:00:00Z,30.3288,-87.8293,1.896,8.75,1111122 
DISL,ioos:station:DISL:BSCA:1,2012-11-03T23:30:00Z,30.3288,-87.8293,1.929,8.16,1111122 
DISL,ioos:station:DISL:BSCA:1,2012-11-04T00:00:00Z,30.3288,-87.8293,1.954,8.44,1111122 
DISL,ioos:station:DISL:BSCA:1,2012-11-04T00:30:00Z,30.3288,-87.8293,1.976,8.97,1111122 
DISL,ioos:station:DISL:BSCA:1,2012-11-04T01:00:00Z,30.3288,-87.8293,2.01,8.61,1111122 
DISL,ioos:station:DISL:BSCA:1,2012-11-04T01:30:00Z,30.3288,-87.8293,2.019,8.56,1111122 
DISL,ioos:station:DISL:BSCA:1,2012-11-04T02:00:00Z,30.3288,-87.8293,2.055,8.86,1111122 
DISL,ioos:station:DISL:BSCA:1,2012-11-04T02:30:00Z,30.3288,-87.8293,2.076,8.23,1111122 
DISL,ioos:station:DISL:BSCA:1,2012-11-04T03:00:00Z,30.3288,-87.8293,2.101,8.92,1111122 
DISL,ioos:station:DISL:BSCA:1,2012-11-04T03:30:00Z,30.3288,-87.8293,2.112,8.81,1111122 
DISL,ioos:station:DISL:BSCA:1,2012-11-04T04:00:00Z,30.3288,-87.8293,2.129,8.82,1111122 
DISL,ioos:station:DISL:BSCA:1,2012-11-04T04:30:00Z,30.3288,-87.8293,2.146,9.08,1111122 
DISL,ioos:station:DISL:BSCA:1,2012-11-04T05:00:00Z,30.3288,-87.8293,2.152,9.71,1111122 
DISL,ioos:station:DISL:BSCA:1,2012-11-04T05:30:00Z,30.3288,-87.8293,2.167,9.36,1111122 
DISL,ioos:station:DISL:BSCA:1,2012-11-04T06:00:00Z,30.3288,-87.8293,2.17,9.3,1111122 
DISL,ioos:station:DISL:BSCA:1,2012-11-04T06:30:00Z,30.3288,-87.8293,2.163,8.99,1111122 
DISL,ioos:station:DISL:BSCA:1,2012-11-04T07:00:00Z,30.3288,-87.8293,2.158,9.53,1111122 
DISL,ioos:station:DISL:BSCA:1,2012-11-04T07:30:00Z,30.3288,-87.8293,2.138,9.55,1111122 
DISL,ioos:station:DISL:BSCA:1,2012-11-04T08:00:00Z,30.3288,-87.8293,2.121,9.38,1111122 
DISL,ioos:station:DISL:BSCA:1,2012-11-04T08:30:00Z,30.3288,-87.8293,2.092,9.65,1111122 
DISL,ioos:station:DISL:BSCA:1,2012-11-04T09:00:00Z,30.3288,-87.8293,2.066,8.62,1111122 
DISL,ioos:station:DISL:BSCA:1,2012-11-04T09:30:00Z,30.3288,-87.8293,2.036,6.73,1111122 
DISL,ioos:station:DISL:BSCA:1,2012-11-04T10:00:00Z,30.3288,-87.8293,2.014,7.02,1111122 
DISL,ioos:station:DISL:BSCA:1,2012-11-04T10:30:00Z,30.3288,-87.8293,1.981,6.69,1111122 
DISL,ioos:station:DISL:BSCA:1,2012-11-04T11:00:00Z,30.3288,-87.8293,1.953,7.13,1111122 
DISL,ioos:station:DISL:BSCA:1,2012-11-04T11:30:00Z,30.3288,-87.8293,1.927,8.17,1111122 
DISL,ioos:station:DISL:BSCA:1,2012-11-04T12:00:00Z,30.3288,-87.8293,1.897,7.73,1111122 
DISL,ioos:station:DISL:BSCA:1,2012-11-04T12:30:00Z,30.3288,-87.8293,1.866,7.75,1111122 
DISL,ioos:station:DISL:BSCA:1,2012-11-04T13:00:00Z,30.3288,-87.8293,1.835,7.72,1111122 
DISL,ioos:station:DISL:BSCA:1,2012-11-04T13:30:00Z,30.3288,-87.8293,1.793,7.32,1111122 
DISL,ioos:station:DISL:BSCA:1,2012-11-04T14:00:00Z,30.3288,-87.8293,1.799,7.87,1111122 
DISL,ioos:station:DISL:BSCA:1,2012-11-04T14:30:00Z,30.3288,-87.8293,1.757,8.96,1111122 
DISL,ioos:station:DISL:BSCA:1,2012-11-04T15:00:00Z,30.3288,-87.8293,1.732,8.56,1111122 
DISL,ioos:station:DISL:BSCA:1,2012-11-04T15:30:00Z,30.3288,-87.8293,1.722,8.19,1111122 
DISL,ioos:station:DISL:BSCA:1,2012-11-04T16:00:00Z,30.3288,-87.8293,1.717,8.53,1111122 
DISL,ioos:station:DISL:BSCA:1,2012-11-04T16:30:00Z,30.3288,-87.8293,1.697,8.73,1111122 
DISL,ioos:station:DISL:BSCA:1,2012-11-04T17:00:00Z,30.3288,-87.8293,1.672,8.87,1111122 
DISL,ioos:station:DISL:BSCA:1,2012-11-04T17:30:00Z,30.3288,-87.8293,1.648,8.81,1111122 
DISL,ioos:station:DISL:BSCA:1,2012-11-04T18:00:00Z,30.3288,-87.8293,1.628,8.46,1111122 
DISL,ioos:station:DISL:BSCA:1,2012-11-04T18:30:00Z,30.3288,-87.8293,1.624,8.25,1111122 
DISL,ioos:station:DISL:BSCA:1,2012-11-04T19:00:00Z,30.3288,-87.8293,1.64,8.68,1111122 
DISL,ioos:station:DISL:BSCA:1,2012-11-04T19:30:00Z,30.3288,-87.8293,1.651,8.87,1111122 
DISL,ioos:station:DISL:BSCA:1,2012-11-04T20:00:00Z,30.3288,-87.8293,1.683,8.93,1111122 
DISL,ioos:station:DISL:BSCA:1,2012-11-04T20:30:00Z,30.3288,-87.8293,1.705,9.02,1111122 
DISL,ioos:station:DISL:BSCA:1,2012-11-04T21:00:00Z,30.3288,-87.8293,1.737,8.16,1111122 
DISL,ioos:station:DISL:BSCA:1,2012-11-04T21:30:00Z,30.3288,-87.8293,1.786,9.3,1111122 
DISL,ioos:station:DISL:BSCA:1,2012-11-04T22:00:00Z,30.3288,-87.8293,1.804,5.86,1111122 
DISL,ioos:station:DISL:BSCA:1,2012-11-04T22:30:00Z,30.3288,-87.8293,1.829,8.55,1111122 
DISL,ioos:station:DISL:BSCA:1,2012-11-04T23:00:00Z,30.3288,-87.8293,1.8,8.63,1111122 
DISL,ioos:station:DISL:BSCA:1,2012-11-04T23:30:00Z,30.3288,-87.8293,1.828,7.83,1111122 
DISL,ioos:station:DISL:BSCA:1,2012-11-05T00:00:00Z,30.3288,-87.8293,1.845,8.85,1111122 
DISL,ioos:station:DISL:BSCA:1,2012-11-05T00:30:00Z,30.3288,-87.8293,1.884,8.21,1111122 
DISL,ioos:station:DISL:BSCA:1,2012-11-05T01:00:00Z,30.3288,-87.8293,1.908,7.18,1111122 
DISL,ioos:station:DISL:BSCA:1,2012-11-05T01:30:00Z,30.3288,-87.8293,1.943,8.15,1111122 
DISL,ioos:station:DISL:BSCA:1,2012-11-05T02:00:00Z,30.3288,-87.8293,1.971,5.79,1111122 
DISL,ioos:station:DISL:BSCA:1,2012-11-05T02:30:00Z,30.3288,-87.8293,1.997,4.71,1111122 
DISL,ioos:station:DISL:BSCA:1,2012-11-05T03:00:00Z,30.3288,-87.8293,2.006,4.72,1111122 
DISL,ioos:station:DISL:BSCA:1,2012-11-05T03:30:00Z,30.3288,-87.8293,2.007,5.09,1111122 
DISL,ioos:station:DISL:BSCA:1,2012-11-05T04:00:00Z,30.3288,-87.8293,2.015,4.62,1111122 
DISL,ioos:station:DISL:BSCA:1,2012-11-05T04:30:00Z,30.3288,-87.8293,2.018,4.41,1111122 
DISL,ioos:station:DISL:BSCA:1,2012-11-05T05:00:00Z,30.3288,-87.8293,2.025,3.8,1111122 
DISL,ioos:station:DISL:BSCA:1,2012-11-05T05:30:00Z,30.3288,-87.8293,2.034,4.09,1111122 
DISL,ioos:station:DISL:BSCA:1,2012-11-05T06:00:00Z,30.3288,-87.8293,2.043,3.06,1111122 
DISL,ioos:station:DISL:BSCA:1,2012-11-05T06:30:00Z,30.3288,-87.8293,2.045,3.31,1111122 
DISL,ioos:station:DISL:BSCA:1,2012-11-05T07:00:00Z,30.3288,-87.8293,2.052,4.21,1111122 
DISL,ioos:station:DISL:BSCA:1,2012-11-05T07:30:00Z,30.3288,-87.8293,2.035,4.13,1111122 
DISL,ioos:station:DISL:BSCA:1,2012-11-05T08:00:00Z,30.3288,-87.8293,2.014,4.66,1111122 
DISL,ioos:station:DISL:BSCA:1,2012-11-05T08:30:00Z,30.3288,-87.8293,1.981,4.27,1111122 
DISL,ioos:station:DISL:BSCA:1,2012-11-05T09:00:00Z,30.3288,-87.8293,1.964,3.53,1111122 
DISL,ioos:station:DISL:BSCA:1,2012-11-05T09:30:00Z,30.3288,-87.8293,1.943,4.08,1111122 
DISL,ioos:station:DISL:BSCA:1,2012-11-05T10:00:00Z,30.3288,-87.8293,1.926,5.4,1111122 
DISL,ioos:station:DISL:BSCA:1,2012-11-05T10:30:00Z,30.3288,-87.8293,1.897,2.99,1111122 
DISL,ioos:station:DISL:BSCA:1,2012-11-05T11:00:00Z,30.3288,-87.8293,1.877,3.11,1111122 
DISL,ioos:station:DISL:BSCA:1,2012-11-05T11:30:00Z,30.3288,-87.8293,1.848,4.11,1111122 
DISL,ioos:station:DISL:BSCA:1,2012-11-05T12:00:00Z,30.3288,-87.8293,1.826,3.49,1111122 
DISL,ioos:station:DISL:BSCA:1,2012-11-05T12:30:00Z,30.3288,-87.8293,1.802,4.38,1111122 
DISL,ioos:station:DISL:BSCA:1,2012-11-05T13:00:00Z,30.3288,-87.8293,1.779,4.89,1111122 
DISL,ioos:station:DISL:BSCA:1,2012-11-05T13:30:00Z,30.3288,-87.8293,1.763,4.2,1111122 
DISL,ioos:station:DISL:BSCA:1,2012-11-05T14:00:00Z,30.3288,-87.8293,1.739,4.4,1111122 
DISL,ioos:station:DISL:BSCA:1,2012-11-05T14:30:00Z,30.3288,-87.8293,1.715,5.24,1111122 
DISL,ioos:station:DISL:BSCA:1,2012-11-05T15:00:00Z,30.3288,-87.8293,1.707,5.27,1111122 
DISL,ioos:station:DISL:BSCA:1,2012-11-05T15:30:00Z,30.3288,-87.8293,1.695,5.73,1111122 
DISL,ioos:station:DISL:BSCA:1,2012-11-05T16:00:00Z,30.3288,-87.8293,1.681,5.99,1111122 
DISL,ioos:station:DISL:BSCA:1,2012-11-05T16:30:00Z,30.3288,-87.8293,1.68,5.87,1111122 
DISL,ioos:station:DISL:BSCA:1,2012-11-05T17:00:00Z,30.3288,-87.8293,1.675,6.07,1111122 
DISL,ioos:station:DISL:BSCA:1,2012-11-05T17:30:00Z,30.3288,-87.8293,1.674,6.13,1111122 
DISL,ioos:station:DISL:BSCA:1,2012-11-05T18:00:00Z,30.3288,-87.8293,1.69,6.28,1111122 
DISL,ioos:station:DISL:BSCA:1,2012-11-05T18:30:00Z,30.3288,-87.8293,1.685,6.45,1111122 
DISL,ioos:station:DISL:BSCA:1,2012-11-05T19:00:00Z,30.3288,-87.8293,1.696,6.49,1111122 
DISL,ioos:station:DISL:BSCA:1,2012-11-05T19:30:00Z,30.3288,-87.8293,1.708,6.49,1111122 
DISL,ioos:station:DISL:BSCA:1,2012-11-05T20:00:00Z,30.3288,-87.8293,1.715,6.45,1111122 
DISL,ioos:station:DISL:BSCA:1,2012-11-05T20:30:00Z,30.3288,-87.8293,1.746,7.21,1111122 
DISL,ioos:station:DISL:BSCA:1,2012-11-05T21:00:00Z,30.3288,-87.8293,1.769,7.65,1111122 
DISL,ioos:station:DISL:BSCA:1,2012-11-05T21:30:00Z,30.3288,-87.8293,1.794,8.28,1111122 
DISL,ioos:station:DISL:BSCA:1,2012-11-05T22:00:00Z,30.3288,-87.8293,1.807,5.75,1111122 
DISL,ioos:station:DISL:BSCA:1,2012-11-05T22:30:00Z,30.3288,-87.8293,1.837,4.51,1111122 
DISL,ioos:station:DISL:BSCA:1,2012-11-05T23:00:00Z,30.3288,-87.8293,1.852,5.44,1111122 
DISL,ioos:station:DISL:BSCA:1,2012-11-05T23:30:00Z,30.3288,-87.8293,1.87,5.22,1111122 
DISL,ioos:station:DISL:BSCA:1,2012-11-06T00:00:00Z,30.3288,-87.8293,1.869,5.33,1111122 
DISL,ioos:station:DISL:BSCA:1,2012-11-06T00:30:00Z,30.3288,-87.8293,1.911,5.67,1111122 
DISL,ioos:station:DISL:BSCA:1,2012-11-06T01:00:00Z,30.3288,-87.8293,1.883,4.12,1111122 
DISL,ioos:station:DISL:BSCA:1,2012-11-06T01:30:00Z,30.3288,-87.8293,1.91,5.23,1111122 
DISL,ioos:station:DISL:BSCA:1,2012-11-06T02:00:00Z,30.3288,-87.8293,1.923,3.61,1111122 
DISL,ioos:station:DISL:BSCA:1,2012-11-06T02:30:00Z,30.3288,-87.8293,1.942,3.61,1111122 
DISL,ioos:station:DISL:BSCA:1,2012-11-06T03:00:00Z,30.3288,-87.8293,1.987,3.76,1111122 
DISL,ioos:station:DISL:BSCA:1,2012-11-06T03:30:00Z,30.3288,-87.8293,2.014,4.07,1111122 
DISL,ioos:station:DISL:BSCA:1,2012-11-06T04:00:00Z,30.3288,-87.8293,2.049,4.24,1111122 
DISL,ioos:station:DISL:BSCA:1,2012-11-06T04:30:00Z,30.3288,-87.8293,2.08,5.32,1111122 
DISL,ioos:station:DISL:BSCA:1,2012-11-06T05:00:00Z,30.3288,-87.8293,2.092,6.06,1111122 
DISL,ioos:station:DISL:BSCA:1,2012-11-06T05:30:00Z,30.3288,-87.8293,2.117,6.21,1111122 
DISL,ioos:station:DISL:BSCA:1,2012-11-06T06:00:00Z,30.3288,-87.8293,2.135,6.51,1111122 
DISL,ioos:station:DISL:BSCA:1,2012-11-06T06:30:00Z,30.3288,-87.8293,2.191,5.15,1111122 
DISL,ioos:station:DISL:BSCA:1,2012-11-06T07:00:00Z,30.3288,-87.8293,2.265,5.22,1111122 
DISL,ioos:station:DISL:BSCA:1,2012-11-06T07:30:00Z,30.3288,-87.8293,2.288,5.21,1111122 
DISL,ioos:station:DISL:BSCA:1,2012-11-06T08:00:00Z,30.3288,-87.8293,2.204,5.64,1111122 
DISL,ioos:station:DISL:BSCA:1,2012-11-06T08:30:00Z,30.3288,-87.8293,2.13,5.61,1111122 
DISL,ioos:station:DISL:BSCA:1,2012-11-06T09:00:00Z,30.3288,-87.8293,2.039,6.05,1111122 
DISL,ioos:station:DISL:BSCA:1,2012-11-06T09:30:00Z,30.3288,-87.8293,1.988,5.6,1111122 
DISL,ioos:station:DISL:BSCA:1,2012-11-06T10:00:00Z,30.3288,-87.8293,1.943,4.92,1111122 
DISL,ioos:station:DISL:BSCA:1,2012-11-06T10:30:00Z,30.3288,-87.8293,1.94,5.4,1111122 
DISL,ioos:station:DISL:BSCA:1,2012-11-06T11:00:00Z,30.3288,-87.8293,1.943,5.3,1111122 
DISL,ioos:station:DISL:BSCA:1,2012-11-06T11:30:00Z,30.3288,-87.8293,1.968,5.5,1111122 
DISL,ioos:station:DISL:BSCA:1,2012-11-06T12:00:00Z,30.3288,-87.8293,1.961,5.63,1111122 
DISL,ioos:station:DISL:BSCA:1,2012-11-06T12:30:00Z,30.3288,-87.8293,1.943,5.67,1111122 
DISL,ioos:station:DISL:BSCA:1,2012-11-06T13:00:00Z,30.3288,-87.8293,1.903,5.75,1111122 
DISL,ioos:station:DISL:BSCA:1,2012-11-06T13:30:00Z,30.3288,-87.8293,1.867,5.74,1111122 
DISL,ioos:station:DISL:BSCA:1,2012-11-06T14:00:00Z,30.3288,-87.8293,1.807,5.75,1111122 
DISL,ioos:station:DISL:BSCA:1,2012-11-06T14:30:00Z,30.3288,-87.8293,1.804,5.66,1111122 
DISL,ioos:station:DISL:BSCA:1,2012-11-06T15:00:00Z,30.3288,-87.8293,1.76,5.62,1111122 
DISL,ioos:station:DISL:BSCA:1,2012-11-06T15:30:00Z,30.3288,-87.8293,1.769,5.72,1111122 